OBJECT H, 57173

Orbit data source: Space-Track

You're viewing an Uncataloged Satellite

Recently launched and/or uncataloged satellites may have evolving metadata. Metadata may include but not limited to: Owner, Maufacturer, Bus, Motor, and Mission.

OBJECT H, 57173 is a satellite in SSO that was launched on Tue, 27 Jun 2023 UTC via a SOYUZ-2-1B launch vehicle from the Vostochny Cosmodrome (VOSTO). Unknown objects in Earth's orbit typically refer to objects detected orbiting the Earth but have not yet been identified or cataloged. These objects could be anything from previously untracked satellites, spent rocket stages, debris from satellite collisions, or even natural meteoroids temporarily captured by Earth's gravity.

Loading next visibility...
Identifier
57173, 2023-091H
Orbit
SSO
Country
Flag of TBDTBD
Related business
None
Manufacturer
Unknown
Mission
Operational Commercial Communications
Bus & Motor
Unknown
Mass
Unknown
Launch date (UTC)
2023-06-27 (3 years ago)
Launch vehicle
SOYUZ-2-1B
Launch site
Vostochny Cosmodrome (VOSTO)
Object type
Unknown
Shape & HBR
Box, 0.1 m
Radar Cross Section
0.035 m², Medium (>0.1 m² and < 1m²)

Expand to show TLE details & history
Last TLE update: 5 days ago

TLE from 5 days ago
0 OBJECT H
1 57173U 23091H   26155.22071655  .00012630  00000-0  45930-3 0  9991
2 57173  97.5050 218.3102 0010805 152.8778 207.3028 15.28341442162320
Epoch: 2026-06-04T05:17Z
TLE epoch observation values (Epoch: 2026-06-04T05:17:49.909Z)
Latitude
-0.00005°
Longitude
-113.81585°
Altitude
490.457 km
Speed
7.616 km/s
True Right ascension
14h 33m 14s
True Declination
0° 00' 00"
Sunlit
Object was in full shadow at epoch
Visualization orbit readout
Latitude
Unknown
Longitude
Unknown
Altitude
Unknown
Speed
Unknown
Apparent Right ascension
Unknown
Apparent Declination
Unknown
Sunlit
N/A
Visualization observer readout
Local Sidereal Time
18:56:01
Azimuth
Unknown
Elevation
Unknown
Doppler factor
Unknown
Orbital elements
Apogee altitude
485.137 km
Perigee altitude
470.321 km
Semi-major axis
6,855.866 km
Eccentricity
0.00108
Inclination
97.505°
RAAN
218.3102°
Arg. of periapsis
152.8778°
True anomaly
207.24607°
Mean anomaly
207.3028°
Eccentric anomaly
207.27443°
Mean motion
3.8234 °/min
Orbital period
94.16 mins
BSTAR
0.0004593
Loading maneuver chart data...
Computing Atmospheric mass density...
Loading historical data...
Loading historical data...
Loading historical data...
Loading historical data...
Loading historical data...
Loading historical data...
Loading historical data...

Documentation

Showing up to 5 results
|